International Virtual Aviation Organisation

Russian Federation and Kazakhstan MCD

 

Карточка аэропорта UIBB

Внимание!
Информация на этой странице в стадии наполнения.
Если вы не увидели какой-то информации, или заметили неточность - пожалуйста сообщите нам!
Спасибо!
Команда RU-STAFF
Название аэропортаБратск
Название аэропорта (англ.)Bratsk
Превышение1598 ft. (487.1 m.)
Координаты56°22.236', 101°41.94'
Высота перехода900m
Эшелон переходаQFE>=715mm:FL060; QFE<715=>688:FL070; QFE<688:FL080
Коды ответчика3301-3327
Зона ОрВДИркутск РПИ (UIII)
Данные METARUIBB 242300Z 07003MPS 050V130 9999 NSC M06/M18 Q1012 R30/820250 NOSIG RMK QFE716/0955
Проноз погоды (TAF)UIBB 242000Z 2421/2521 09003MPS 9999 BKN016CB TEMPO 2421/2509 1900 SHSN
NOTAMshow/hide NOTAM
AWOS   TABLE

Информация о ВПП


Диспетчерские позиции

Позывной Наименование органа УВД Частота
UIBB_APPБратск-Подход118.1
UIBB_GNDБратск-Руление121.8



Спутниковое изображение